[[{"header":{"parameterUnit":"m.s-1","parameterCategory":1,"la1":30.2991,"la2":30.254,"lo1":-89.0895,"lo2":-89.0444,"dy":0.0017,"dx":0.0017,"nx":28,"ny":28,"refTime":"2024-04-20T09:00:00:Z","depth":0,"parameterNumber":2,"parameterNumberName":"U-component_of_WINDS"},"data":[0,0,0,0,0,0,0,0,0,0,0,0,0,0,0,0,0,0,0,0,0,0,0,0,0,0,0,0,0,0,0,0,0,0,0,0,0,0,0,0,0,0,0,0,0,0,0,0,0,0,0,0,0,0,0,0,0,0,-1.459,-1.459,0,-1.4572,-1.4572,-1.4572,-1.4571,-1.4571,-1.4572,-1.4572,-1.455,-1.455,-1.4549,0,0,0,0,0,0,0,0,0,0,0,0,0,-1.462,-1.4619,-1.459,-1.459,-1.4589,-1.4572,-1.4572,-1.4572,-1.4571,-1.4571,-1.4572,-1.4572,-1.4551,-1.455,-1.4549,0,0,0,0,0,0,0,0,0,0,0,0,0,-1.4605,-1.4619,-1.459,-1.4587,-1.4587,-1.4572,-1.4572,-1.4572,-1.4571,-1.4571,-1.4572,-1.4572,-1.4551,-1.455,-1.4549,-1.4535,0,0,-1.4545,-1.4545,0,0,0,0,0,0,0,0,-1.4606,-1.4604,-1.4588,-1.4587,-1.4587,-1.4574,-1.4575,-1.4559,-1.4571,-1.4577,-1.4572,-1.4572,-1.4558,-1.4556,-1.4552,-1.4534,-1.4533,-1.4545,-1.4544,-1.4544,-1.4544,0,0,0,0,0,0,0,-1.4607,-1.4605,-1.4583,-1.4587,-1.4587,-1.4586,-1.4584,-1.4572,-1.4566,-1.4576,-1.4576,-1.4574,-1.4558,-1.4553,-1.4552,-1.4533,-1.4545,-1.4544,-1.4543,-1.4543,-1.45,-1.45,0,0,0,0,0,0,-1.4609,-1.4605,-1.4583,-1.4582,-1.4597,-1.4585,-1.4583,-1.4578,-1.4566,-1.4564,-1.4574,-1.4574,-1.4555,-1.4553,-1.4551,-1.4532,-1.4544,-1.4543,-1.4542,-1.4501,-1.45,-1.45,0,0,0,0,0,0,-1.4609,-1.4607,-1.4584,-1.4594,-1.4591,-1.4584,-1.4578,-1.4577,-1.4573,-1.4564,-1.4563,-1.4571,-1.4555,-1.4552,-1.4539,-1.4532,-1.4542,-1.4541,-1.4501,-1.4501,-1.45,-1.4497,0,0,0,0,0,0,-1.461,-1.4607,-1.4603,-1.4594,-1.459,-1.4573,-1.4578,-1.4577,-1.4571,-1.4571,-1.4561,-1.4559,-1.4555,-1.454,-1.4538,-1.453,-1.454,-1.4502,-1.4501,-1.45,-1.4497,-1.4496,-1.4495,0,0,0,0,0,-1.4611,-1.4602,-1.4602,-1.46,-1.4585,-1.4573,-1.4571,-1.4567,-1.4571,-1.4565,-1.456,-1.4559,-1.4533,-1.4539,-1.4536,-1.4528,-1.4502,-1.4501,-1.45,-1.4498,-1.4496,-1.4495,0,0,0,0,0,0,-1.4609,-1.4601,-1.4601,-1.4589,-1.4582,-1.4573,-1.4566,-1.4566,-1.4557,-1.4557,-1.4553,-1.455,-1.4536,-1.4531,-1.4538,-1.4513,-1.4518,-1.4516,-1.4517,-1.4516,-1.4514,-1.4515,-1.4539,0,0,0,0,0,-1.4608,-1.46,-1.4593,-1.4582,-1.4579,-1.4573,-1.4568,-1.4566,-1.4558,-1.4555,-1.4548,-1.4539,-1.4529,-1.4522,-1.4512,-1.4497,-1.4493,-1.449,-1.4489,-1.4488,-1.4486,-1.4475,-1.4473,-1.4497,-1.4497,-1.4497,0,0,-1.4604,-1.4598,-1.4593,-1.4582,-1.4576,-1.4567,-1.4571,-1.4561,-1.4554,-1.4553,-1.4539,-1.4534,-1.4524,-1.4509,-1.4502,-1.4504,-1.4479,-1.4486,-1.4486,-1.4484,-1.4474,-1.4472,-1.447,-1.4496,-1.4496,-1.4496,0,0,-1.4592,-1.4588,-1.4578,-1.4572,-1.4564,-1.456,-1.4557,-1.4549,-1.4545,-1.4532,-1.4531,-1.4521,-1.4504,-1.4496,-1.449,-1.4474,-1.4473,-1.4471,-1.4464,-1.4454,-1.4452,-1.4451,-1.4444,-1.4441,-1.447,-1.447,-1.447,0,-1.4588,-1.4575,-1.4573,-1.4563,-1.4557,-1.4557,-1.4546,-1.454,-1.4529,-1.4524,-1.4527,-1.4504,-1.4498,-1.448,-1.4476,-1.4472,-1.4467,-1.4472,-1.4453,-1.4451,-1.445,-1.4443,-1.444,-1.447,-1.447,-1.447,-1.447,0,-1.457,-1.4561,-1.4554,-1.4543,-1.4537,-1.4526,-1.4521,-1.4515,-1.4513,-1.4509,-1.4494,-1.4486,-1.4474,-1.447,-1.4468,-1.4451,-1.4453,-1.4454,-1.4459,-1.4447,-1.4441,-1.4438,-1.4469,-1.4469,-1.4469,-1.4469,0,0,-1.4556,-1.4544,-1.4541,-1.4536,-1.4526,-1.4518,-1.4507,-1.4496,-1.449,-1.4482,-1.4471,-1.4457,-1.4458,-1.4451,-1.4448,-1.444,-1.4425,-1.4442,-1.4442,-1.4438,-1.4405,-1.4402,-1.44,-1.4425,-1.4425,-1.4424,-1.4405,0,-1.4542,-1.4524,-1.4521,-1.4504,-1.4495,-1.4494,-1.4484,-1.4476,-1.4472,-1.4462,-1.4457,-1.4445,-1.4449,-1.4444,-1.4436,-1.4429,-1.4418,-1.4431,-1.4414,-1.4413,-1.4415,-1.4396,-1.4394,-1.4377,-1.4403,-1.4402,-1.4402,0,-1.4523,-1.4515,-1.4497,-1.4488,-1.4484,-1.4475,-1.4464,-1.4456,-1.4446,-1.4443,-1.4435,-1.4433,-1.442,-1.4426,-1.4407,-1.4415,-1.4408,-1.4403,-1.4402,-1.4399,-1.4406,-1.4392,-1.4371,-1.4368,-1.4398,-1.4398,-1.4399,0,-1.4513,-1.4497,-1.4485,-1.448,-1.4469,-1.4463,-1.4458,-1.4449,-1.4442,-1.4432,-1.4427,-1.4415,-1.4408,-1.4398,-1.4393,-1.4398,-1.4373,-1.4379,-1.4369,-1.4369,-1.4363,-1.4363,-1.4339,-1.4361,-1.4361,-1.4361,-1.4361,0,-1.4497,-1.4486,-1.448,-1.4472,-1.4459,-1.4455,-1.4442,-1.4437,-1.4429,-1.4419,-1.4417,-1.4407,-1.4401,-1.439,-1.4385,-1.4369,-1.4366,-1.4362,-1.4361,-1.4361,-1.4362,-1.4356,-1.4356,-1.436,-1.436,-1.436,-1.436,0,-1.4483,-1.4479,-1.4465,-1.4455,-1.4453,-1.4443,-1.4435,-1.4426,-1.4421,-1.4408,-1.4405,-1.4397,-1.4384,-1.4377,-1.436,-1.4357,-1.4338,-1.4338,-1.4342,-1.4341,-1.433,-1.4331,-1.4301,-1.4296,-1.4322,-1.4322,-1.4321,0,-1.4472,-1.4464,-1.4454,-1.4447,-1.4442,-1.4432,-1.4425,-1.4421,-1.4413,-1.4401,-1.4393,-1.438,-1.4369,-1.4347,-1.4339,-1.4326,-1.4324,-1.4315,-1.4322,-1.4323,-1.4322,-1.4322,-1.432,-1.4313,-1.4313,-1.4313,-1.4312,0,-1.4454,-1.4452,-1.4442,-1.4432,-1.4424,-1.4415,-1.4406,-1.4401,-1.4395,-1.4386,-1.4373,-1.4364,-1.4347,-1.4333,-1.4319,-1.4312,-1.431,-1.431,-1.4307,-1.4307,-1.4308,-1.4306,-1.4336,-1.4311,-1.4311,-1.4311,-1.4311,-1.4311,-1.444,-1.4432,-1.4423,-1.4412,-1.4406,-1.4397,-1.4388,-1.4382,-1.4372,-1.4358,-1.4356,-1.4341,-1.433,-1.4311,-1.4304,-1.4291,-1.4293,-1.4288,-1.4287,-1.4286,-1.4284,-1.4312,-1.4289,-1.4289,-1.4289,-1.4289,-1.4289,0,-1.442,-1.4414,-1.4404,-1.4392,-1.4383,-1.4384,-1.4374,-1.4366,-1.4353,-1.4344,-1.4333,-1.4317,-1.4303,-1.4294,-1.4279,-1.4271,-1.4269,-1.4267,-1.4267,-1.4264,-1.4284,-1.4288,-1.4268,-1.4268,-1.4268,-1.4268,-1.4268,-1.4268,-1.4408,-1.4394,-1.4391,-1.4373,-1.4367,-1.4353,-1.4347,-1.4339,-1.4331,-1.4313,-1.4302,-1.4297,-1.4286,-1.4271,-1.4258,-1.4255,-1.4249,-1.4246,-1.4243,-1.4261,-1.4263,-1.4265,-1.4269,-1.4245,-1.4245,-1.4224,-1.4224,-1.4224]},{"header":{"parameterUnit":"m.s-1","parameterCategory":1,"la1":30.2991,"la2":30.254,"lo1":-89.0895,"lo2":-89.0444,"dy":0.0017,"dx":0.0017,"nx":28,"ny":28,"refTime":"2024-04-20T09:00:00:Z","depth":0,"parameterNumber":3,"parameterNumberName":"V-component_of_WINDS"},"data":[0,0,0,0,0,0,0,0,0,0,0,0,0,0,0,0,0,0,0,0,0,0,0,0,0,0,0,0,0,0,0,0,0,0,0,0,0,0,0,0,0,0,0,0,0,0,0,0,0,0,0,0,0,0,0,0,0,0,-0.5127,-0.5127,0,-0.5118,-0.5118,-0.5118,-0.5189,-0.5191,-0.5193,-0.5194,-0.5181,-0.5178,-0.5176,0,0,0,0,0,0,0,0,0,0,0,0,0,-0.52,-0.5198,-0.5127,-0.5127,-0.5127,-0.5118,-0.5118,-0.5118,-0.5188,-0.5191,-0.5193,-0.5195,-0.5181,-0.5179,-0.5176,0,0,0,0,0,0,0,0,0,0,0,0,0,-0.5177,-0.5198,-0.5127,-0.5161,-0.5164,-0.5118,-0.5118,-0.5118,-0.5188,-0.5191,-0.5194,-0.5197,-0.5182,-0.5179,-0.5176,-0.5096,0,0,-0.5166,-0.5164,0,0,0,0,0,0,0,0,-0.5178,-0.5174,-0.5156,-0.5158,-0.5162,-0.5158,-0.5139,-0.511,-0.5187,-0.5178,-0.5195,-0.5198,-0.517,-0.5168,-0.516,-0.5095,-0.5095,-0.5165,-0.5163,-0.5162,-0.5161,0,0,0,0,0,0,0,-0.518,-0.5175,-0.5123,-0.5156,-0.5159,-0.5175,-0.5175,-0.5134,-0.5158,-0.5179,-0.5185,-0.5183,-0.5172,-0.5163,-0.516,-0.5094,-0.5165,-0.5162,-0.516,-0.5159,-0.4964,-0.4961,0,0,0,0,0,0,-0.5178,-0.5176,-0.5124,-0.5123,-0.5178,-0.5171,-0.5172,-0.5156,-0.5158,-0.5162,-0.518,-0.5186,-0.5167,-0.5164,-0.516,-0.5067,-0.5162,-0.5159,-0.5157,-0.4967,-0.4963,-0.496,0,0,0,0,0,0,-0.5179,-0.5172,-0.5124,-0.5151,-0.5146,-0.5167,-0.5149,-0.5154,-0.5145,-0.5159,-0.5163,-0.5167,-0.5169,-0.5164,-0.5112,-0.5068,-0.5157,-0.5154,-0.4971,-0.4966,-0.4962,-0.488,0,0,0,0,0,0,-0.5181,-0.5172,-0.5143,-0.515,-0.5144,-0.5077,-0.5146,-0.5152,-0.514,-0.5147,-0.5147,-0.515,-0.5171,-0.5116,-0.5108,-0.5065,-0.5152,-0.4975,-0.4969,-0.4963,-0.4887,-0.4873,-0.4862,0,0,0,0,0,-0.5183,-0.5119,-0.5141,-0.5135,-0.5109,-0.5074,-0.5071,-0.5098,-0.5136,-0.5106,-0.5115,-0.515,-0.5074,-0.511,-0.5102,-0.5056,-0.4978,-0.4971,-0.4964,-0.4893,-0.4876,-0.4862,0,0,0,0,0,0,-0.5105,-0.5121,-0.5145,-0.5082,-0.5077,-0.5086,-0.505,-0.508,-0.5062,-0.507,-0.5102,-0.5102,-0.5043,-0.5045,-0.5085,-0.498,-0.5032,-0.5023,-0.4981,-0.4965,-0.4953,-0.4954,-0.5149,0,0,0,0,0,-0.5081,-0.5053,-0.5068,-0.501,-0.5007,-0.5028,-0.5015,-0.5036,-0.5031,-0.5028,-0.5034,-0.5026,-0.5001,-0.4983,-0.496,-0.4887,-0.4888,-0.4852,-0.4839,-0.4829,-0.482,-0.4782,-0.4767,-0.4936,-0.4936,-0.4937,0,0,-0.5029,-0.5035,-0.5015,-0.4995,-0.4993,-0.4963,-0.5026,-0.4991,-0.4968,-0.5023,-0.4974,-0.4977,-0.4971,-0.4908,-0.4881,-0.4907,-0.4774,-0.482,-0.4811,-0.4809,-0.4773,-0.4757,-0.4743,-0.4932,-0.4932,-0.4933,0,0,-0.4921,-0.4922,-0.4875,-0.4873,-0.487,-0.4885,-0.4874,-0.4879,-0.4884,-0.4836,-0.4877,-0.4849,-0.4804,-0.4798,-0.4789,-0.4679,-0.4711,-0.4671,-0.4604,-0.4567,-0.4553,-0.4542,-0.4503,-0.4488,-0.4662,-0.4662,-0.4662,0,-0.4858,-0.4815,-0.4847,-0.481,-0.4799,-0.4849,-0.4801,-0.4796,-0.4785,-0.4777,-0.4807,-0.4753,-0.4751,-0.4688,-0.4662,-0.4652,-0.464,-0.4671,-0.4553,-0.4542,-0.4531,-0.4494,-0.4479,-0.4657,-0.4658,-0.4658,-0.4659,0,-0.4737,-0.4707,-0.4669,-0.4659,-0.4645,-0.4602,-0.4626,-0.4608,-0.463,-0.4642,-0.4592,-0.4593,-0.4571,-0.4558,-0.4578,-0.4497,-0.4514,-0.4548,-0.4601,-0.451,-0.4476,-0.4462,-0.465,-0.4652,-0.4654,-0.4655,0,0,-0.4579,-0.4589,-0.4574,-0.4571,-0.4572,-0.4548,-0.4507,-0.4488,-0.4471,-0.4462,-0.4428,-0.4389,-0.4422,-0.4411,-0.4432,-0.4399,-0.4312,-0.4437,-0.4438,-0.4414,-0.4222,-0.4197,-0.418,-0.4333,-0.433,-0.4328,-0.4223,0,-0.4474,-0.4407,-0.4435,-0.4365,-0.4337,-0.4384,-0.4348,-0.4344,-0.4354,-0.433,-0.434,-0.4312,-0.4357,-0.4351,-0.432,-0.4329,-0.4274,-0.4337,-0.4301,-0.4299,-0.4301,-0.4162,-0.4135,-0.4036,-0.421,-0.4208,-0.4206,0,-0.4343,-0.433,-0.4258,-0.4265,-0.4254,-0.4222,-0.4207,-0.4184,-0.418,-0.4189,-0.4178,-0.4206,-0.4165,-0.4218,-0.4162,-0.4205,-0.4191,-0.4193,-0.419,-0.4188,-0.4247,-0.4156,-0.4005,-0.399,-0.4185,-0.4187,-0.4188,0,-0.4236,-0.42,-0.4153,-0.4148,-0.4154,-0.4131,-0.4132,-0.4131,-0.4118,-0.4104,-0.4095,-0.4076,-0.4065,-0.4049,-0.4071,-0.4107,-0.4011,-0.4066,-0.4017,-0.4016,-0.3994,-0.3996,-0.3839,-0.3985,-0.3985,-0.3986,-0.3986,0,-0.4116,-0.407,-0.4105,-0.4076,-0.4025,-0.4057,-0.4005,-0.4011,-0.401,-0.3982,-0.402,-0.3992,-0.4023,-0.3997,-0.4013,-0.3965,-0.3959,-0.3965,-0.397,-0.3961,-0.3961,-0.3953,-0.3961,-0.3982,-0.3983,-0.3983,-0.3984,0,-0.3988,-0.401,-0.3961,-0.3971,-0.3973,-0.3935,-0.3943,-0.3915,-0.3928,-0.3892,-0.3885,-0.3904,-0.3876,-0.3896,-0.3868,-0.3879,-0.3814,-0.3829,-0.3816,-0.382,-0.377,-0.3774,-0.3603,-0.3582,-0.3742,-0.374,-0.3739,0,-0.391,-0.3876,-0.3883,-0.3868,-0.3867,-0.3842,-0.3829,-0.3859,-0.3843,-0.3837,-0.3809,-0.3786,-0.3768,-0.3721,-0.3731,-0.371,-0.3724,-0.3665,-0.3721,-0.3714,-0.3723,-0.3725,-0.3722,-0.3654,-0.3652,-0.365,-0.3649,0,-0.377,-0.3783,-0.3764,-0.3749,-0.3733,-0.3722,-0.3713,-0.3698,-0.3728,-0.3709,-0.3682,-0.3669,-0.3641,-0.3616,-0.3598,-0.3598,-0.3628,-0.3632,-0.3619,-0.361,-0.3605,-0.3607,-0.3786,-0.3635,-0.3637,-0.3638,-0.3639,-0.3639,-0.3665,-0.3637,-0.3638,-0.3616,-0.3613,-0.3605,-0.358,-0.359,-0.3569,-0.355,-0.3568,-0.3535,-0.3531,-0.3511,-0.3507,-0.3481,-0.3505,-0.3487,-0.3482,-0.3477,-0.347,-0.3609,-0.3478,-0.3478,-0.3479,-0.3479,-0.3479,0,-0.3527,-0.3531,-0.351,-0.3498,-0.348,-0.3512,-0.3505,-0.3487,-0.3459,-0.3454,-0.3436,-0.3405,-0.3381,-0.339,-0.3368,-0.3346,-0.3359,-0.3339,-0.3341,-0.334,-0.345,-0.3463,-0.3329,-0.3329,-0.3329,-0.3329,-0.3329,-0.3329,-0.3454,-0.3409,-0.3421,-0.3375,-0.3378,-0.3348,-0.3341,-0.3333,-0.3329,-0.3293,-0.3275,-0.3281,-0.3281,-0.326,-0.3239,-0.3242,-0.3233,-0.3208,-0.3215,-0.3318,-0.3333,-0.3347,-0.3359,-0.3205,-0.3205,-0.3108,-0.3107,-0.3106]}]]